Torna al catalogo

STARLINK-31805

AttivoComunicazioniVLEO
NORAD 59745·PAYLOAD·🇺🇸 United States

Lanciato May 13, 2024 da Cape Canaveral Space Force Station

Loading…

Prossimi Passaggi (prossime 24 ore)

TLE

AggiornatoSource: CelesTrak SupGP

Epoca: Sep 15, 2026, 03:18 UTC

1 59745C 24090R   26258.13798611 -.00031052  00000+0 -11249-2 0  2583
2 59745  42.9998 193.2346 0001187 275.1498 239.4610 15.27588322    13

Traccia STARLINK-31805 in tempo reale con AllMySat

Download on the App Store